[[{"header":{"parameterUnit":"m.s-1","parameterCategory":1,"la1":30.2991,"la2":30.254,"lo1":-89.0895,"lo2":-89.0444,"dy":0.0017,"dx":0.0017,"nx":28,"ny":28,"refTime":"2024-04-09T03:00:00:Z","depth":0,"parameterNumber":2,"parameterNumberName":"U-component_of_WINDS"},"data":[0,0,0,0,0,0,0,0,0,0,0,0,0,0,0,0,0,0,0,0,0,0,0,0,0,0,0,0,0,0,0,0,0,0,0,0,0,0,0,0,0,0,0,0,0,0,0,0,0,0,0,0,0,0,0,0,0,0,-8.2284,-8.2285,0,-8.2442,-8.2444,-8.2446,-8.2396,-8.2393,-8.239,-8.2387,-8.2546,-8.2553,-8.256,0,0,0,0,0,0,0,0,0,0,0,0,0,-8.1935,-8.1941,-8.2284,-8.2286,-8.2288,-8.2442,-8.2444,-8.2446,-8.2397,-8.2393,-8.2389,-8.2385,-8.2543,-8.2552,-8.2561,0,0,0,0,0,0,0,0,0,0,0,0,0,-8.2089,-8.1943,-8.2283,-8.2282,-8.2283,-8.2442,-8.2444,-8.2447,-8.2398,-8.2393,-8.2388,-8.2383,-8.254,-8.2551,-8.2562,-8.2731,0,0,-8.2596,-8.2601,0,0,0,0,0,0,0,0,-8.208,-8.2102,-8.228,-8.2282,-8.2284,-8.2395,-8.238,-8.2542,-8.2399,-8.2354,-8.2386,-8.2381,-8.2499,-8.2513,-8.2554,-8.2738,-8.2745,-8.2597,-8.2604,-8.2608,-8.2611,0,0,0,0,0,0,0,-8.207,-8.2095,-8.2346,-8.2282,-8.2285,-8.2272,-8.2288,-8.241,-8.2453,-8.2358,-8.2354,-8.2374,-8.2499,-8.2544,-8.2557,-8.2747,-8.2596,-8.2606,-8.2613,-8.2617,-8.3076,-8.3082,0,0,0,0,0,0,-8.2058,-8.2086,-8.2341,-8.2351,-8.2168,-8.2282,-8.2301,-8.2364,-8.2451,-8.246,-8.2378,-8.2371,-8.2527,-8.2545,-8.2563,-8.2764,-8.2608,-8.2619,-8.2625,-8.3071,-8.3077,-8.3083,0,0,0,0,0,0,-8.2051,-8.2081,-8.2335,-8.2218,-8.2249,-8.2294,-8.2365,-8.237,-8.2414,-8.2467,-8.2474,-8.2416,-8.2524,-8.2547,-8.2689,-8.2769,-8.2623,-8.2634,-8.3064,-8.3073,-8.308,-8.3168,0,0,0,0,0,0,-8.2041,-8.2079,-8.2144,-8.222,-8.2256,-8.2459,-8.237,-8.2377,-8.2433,-8.2426,-8.2504,-8.2512,-8.2522,-8.2673,-8.27,-8.2781,-8.2642,-8.3057,-8.3068,-8.3078,-8.3158,-8.3179,-8.3196,0,0,0,0,0,-8.2029,-8.2162,-8.2148,-8.2179,-8.2338,-8.2464,-8.2484,-8.2494,-8.244,-8.2505,-8.2539,-8.251,-8.2757,-8.2688,-8.2718,-8.2804,-8.3052,-8.3065,-8.3077,-8.315,-8.3175,-8.3195,0,0,0,0,0,0,-8.2093,-8.2172,-8.2157,-8.2319,-8.2385,-8.2456,-8.2538,-8.252,-8.2602,-8.2591,-8.2599,-8.2617,-8.2762,-8.2798,-8.272,-8.2971,-8.2896,-8.2915,-8.2941,-8.2965,-8.2984,-8.297,-8.2651,0,0,0,0,0,-8.2127,-8.2224,-8.2287,-8.2424,-8.2458,-8.2493,-8.2548,-8.255,-8.2618,-8.2646,-8.269,-8.2757,-8.285,-8.291,-8.2998,-8.3165,-8.318,-8.3239,-8.3258,-8.3273,-8.3288,-8.3376,-8.3402,-8.3125,-8.3124,-8.3124,0,0,-8.2196,-8.2251,-8.2311,-8.2438,-8.249,-8.2588,-8.2516,-8.2624,-8.2697,-8.2662,-8.2797,-8.2833,-8.2909,-8.3063,-8.3133,-8.3097,-8.3369,-8.3289,-8.33,-8.3307,-8.3392,-8.3418,-8.3441,-8.3133,-8.3132,-8.313,0,0,-8.2371,-8.2425,-8.2543,-8.2597,-8.2677,-8.2699,-8.2728,-8.2802,-8.2824,-8.2961,-8.2936,-8.3023,-8.3183,-8.3237,-8.3285,-8.3483,-8.3458,-8.3512,-8.3608,-8.3694,-8.3716,-8.3735,-8.3803,-8.3827,-8.3528,-8.3528,-8.3529,0,-8.2446,-8.2595,-8.2606,-8.2716,-8.2771,-8.2747,-8.2866,-8.2917,-8.3021,-8.306,-8.3019,-8.3218,-8.3268,-8.3433,-8.3481,-8.3523,-8.3554,-8.3501,-8.3712,-8.3732,-8.375,-8.3814,-8.384,-8.3534,-8.3533,-8.3533,-8.3532,0,-8.2682,-8.2786,-8.2872,-8.2974,-8.304,-8.3154,-8.3181,-8.3246,-8.3244,-8.327,-8.3409,-8.3468,-8.3567,-8.3607,-8.3605,-8.3773,-8.3747,-8.371,-8.3634,-8.3782,-8.3842,-8.3867,-8.3542,-8.354,-8.3539,-8.3537,0,0,-8.2898,-8.3007,-8.3038,-8.3083,-8.317,-8.325,-8.3363,-8.3461,-8.3515,-8.3589,-8.3682,-8.3819,-8.3785,-8.384,-8.3844,-8.392,-8.407,-8.3873,-8.3875,-8.3904,-8.4254,-8.4278,-8.4307,-8.4056,-8.406,-8.4064,-8.4246,0,-8.3078,-8.3277,-8.3291,-8.3469,-8.3564,-8.3543,-8.3641,-8.3705,-8.3733,-8.3817,-8.3848,-8.3943,-8.3893,-8.3926,-8.4001,-8.4035,-8.4139,-8.4023,-8.4139,-8.4143,-8.4116,-8.4339,-8.4365,-8.4534,-8.427,-8.4274,-8.4277,0,-8.3313,-8.3394,-8.3583,-8.3656,-8.3696,-8.3784,-8.3874,-8.3956,-8.4027,-8.4042,-8.4105,-8.4099,-8.4213,-8.4138,-8.4294,-8.4215,-8.4264,-8.4289,-8.4295,-8.4302,-8.4215,-8.4348,-8.4588,-8.4612,-8.4315,-8.4312,-8.431,0,-8.3447,-8.3604,-8.3736,-8.3777,-8.3867,-8.3928,-8.3969,-8.4035,-8.4093,-8.4173,-8.421,-8.4302,-8.4351,-8.4421,-8.444,-8.4384,-8.4595,-8.4521,-8.4608,-8.4608,-8.465,-8.4646,-8.4897,-8.4689,-8.4689,-8.4688,-8.4688,0,-8.3643,-8.3758,-8.3798,-8.3879,-8.4007,-8.4022,-8.4148,-8.4185,-8.4245,-8.4331,-8.4321,-8.4402,-8.4424,-8.4509,-8.4525,-8.465,-8.4673,-8.4687,-8.4689,-8.4685,-8.4683,-8.4714,-8.4701,-8.4695,-8.4694,-8.4692,-8.4691,0,-8.3812,-8.3844,-8.3986,-8.406,-8.4082,-8.4173,-8.4235,-8.4313,-8.4341,-8.4451,-8.4477,-8.4521,-8.4621,-8.4648,-8.4767,-8.4778,-8.4924,-8.4918,-8.49,-8.4898,-8.4982,-8.4972,-8.5257,-8.5294,-8.5067,-8.5069,-8.5071,0,-8.3933,-8.4021,-8.4105,-8.4163,-8.4206,-8.4299,-8.4358,-8.4378,-8.444,-8.4529,-8.4595,-8.4694,-8.4773,-8.4933,-8.4975,-8.5066,-8.5058,-8.5153,-8.5072,-8.5065,-8.5055,-8.5047,-8.5055,-8.5166,-8.5168,-8.517,-8.5172,0,-8.4142,-8.4154,-8.424,-8.4332,-8.4403,-8.4477,-8.4547,-8.4595,-8.4624,-8.4694,-8.4797,-8.4859,-8.4981,-8.5078,-8.5171,-8.5211,-8.5195,-8.5198,-8.5222,-8.5217,-8.5201,-8.5207,-8.4936,-8.519,-8.5188,-8.5187,-8.5186,-8.5185,-8.4288,-8.4364,-8.4436,-8.4532,-8.4587,-8.4653,-8.4729,-8.4767,-8.4853,-8.4955,-8.4962,-8.5072,-8.5141,-8.5264,-8.531,-8.5395,-8.5367,-8.5403,-8.5411,-8.5419,-8.5424,-8.5192,-8.5413,-8.5412,-8.5412,-8.5412,-8.5411,0,-8.4493,-8.4538,-8.4627,-8.4726,-8.4802,-8.4784,-8.4861,-8.4925,-8.5022,-8.5089,-8.5168,-8.5285,-8.538,-8.543,-8.5524,-8.5583,-8.5578,-8.5606,-8.5599,-8.5608,-8.5446,-8.5413,-8.5608,-8.5608,-8.5608,-8.5608,-8.5608,-8.5608,-8.4608,-8.4736,-8.4757,-8.4912,-8.4956,-8.5064,-8.5109,-8.517,-8.5223,-8.5354,-8.5433,-8.5466,-8.5526,-8.5624,-8.571,-8.5722,-8.5755,-8.5786,-8.5794,-8.564,-8.562,-8.5601,-8.557,-8.5794,-8.5795,-8.5949,-8.595,-8.5952]},{"header":{"parameterUnit":"m.s-1","parameterCategory":1,"la1":30.2991,"la2":30.254,"lo1":-89.0895,"lo2":-89.0444,"dy":0.0017,"dx":0.0017,"nx":28,"ny":28,"refTime":"2024-04-09T03:00:00:Z","depth":0,"parameterNumber":3,"parameterNumberName":"V-component_of_WINDS"},"data":[0,0,0,0,0,0,0,0,0,0,0,0,0,0,0,0,0,0,0,0,0,0,0,0,0,0,0,0,0,0,0,0,0,0,0,0,0,0,0,0,0,0,0,0,0,0,0,0,0,0,0,0,0,0,0,0,0,0,2.9781,2.9781,0,2.9826,2.9826,2.9827,2.982,2.9819,2.9818,2.9818,2.986,2.9862,2.9864,0,0,0,0,0,0,0,0,0,0,0,0,0,2.9687,2.9689,2.9781,2.9781,2.9782,2.9826,2.9826,2.9827,2.982,2.9819,2.9818,2.9817,2.986,2.9862,2.9864,0,0,0,0,0,0,0,0,0,0,0,0,0,2.9729,2.9689,2.9781,2.9784,2.9785,2.9826,2.9826,2.9827,2.982,2.9819,2.9818,2.9817,2.9859,2.9862,2.9865,2.9904,0,0,2.9873,2.9874,0,0,0,0,0,0,0,0,2.9727,2.9733,2.9783,2.9784,2.9785,2.9816,2.9809,2.9853,2.9821,2.9807,2.9818,2.9816,2.9846,2.985,2.9861,2.9906,2.9908,2.9873,2.9875,2.9876,2.9877,0,0,0,0,0,0,0,2.9724,2.9731,2.9798,2.9783,2.9785,2.9782,2.9787,2.9817,2.9832,2.9808,2.9807,2.9813,2.9847,2.9858,2.9862,2.9909,2.9873,2.9876,2.9877,2.9878,2.9991,2.9992,0,0,0,0,0,0,2.9721,2.9728,2.9797,2.98,2.9753,2.9785,2.979,2.9807,2.9832,2.9835,2.9814,2.9812,2.9854,2.9859,2.9863,2.9913,2.9876,2.9879,2.988,2.999,2.9991,2.9993,0,0,0,0,0,0,2.9719,2.9727,2.9795,2.9764,2.9773,2.9788,2.9807,2.9809,2.982,2.9837,2.9839,2.9823,2.9853,2.986,2.9895,2.9914,2.988,2.9882,2.9988,2.999,2.9992,3.0011,0,0,0,0,0,0,2.9716,2.9726,2.9741,2.9765,2.9774,2.9826,2.9808,2.981,2.9826,2.9824,2.9846,2.9848,2.9853,2.9891,2.9898,2.9917,2.9885,2.9987,2.9989,2.9992,3.0008,3.0013,3.0017,0,0,0,0,0,2.9713,2.9744,2.9742,2.9751,2.9794,2.9827,2.9833,2.9839,2.9827,2.9843,2.9854,2.9848,2.9911,2.9895,2.9902,2.9923,2.9985,2.9988,2.9991,3.0006,3.0012,3.0017,0,0,0,0,0,0,2.972,2.9747,2.9745,2.9785,2.9804,2.9826,2.9846,2.9844,2.9866,2.9864,2.9869,2.9874,2.991,2.992,2.9901,2.9964,2.9947,2.9951,2.9955,2.9961,2.9965,2.9961,2.9887,0,0,0,0,0,2.9727,2.9753,2.9774,2.9807,2.9817,2.983,2.9845,2.9848,2.9867,2.9875,2.9888,2.9907,2.9931,2.9947,2.997,3.0011,3.0015,3.0029,3.0033,3.0036,3.004,3.0063,3.0069,3.0003,3.0003,3.0003,0,0,2.974,2.9758,2.9773,2.9809,2.9824,2.9851,2.9837,2.9864,2.9884,2.9879,2.9913,2.9924,2.9945,2.9984,3.0002,2.9993,3.006,3.004,3.0043,3.0044,3.0067,3.0073,3.0079,3.0005,3.0004,3.0004,0,0,2.9778,2.9794,2.9824,2.984,2.9865,2.9873,2.9881,2.9904,2.9911,2.9947,2.9944,2.9967,3.0009,3.0024,3.0037,3.0085,3.008,3.0092,3.0114,3.0137,3.0142,3.0147,3.0164,3.017,3.0096,3.0096,3.0096,0,2.9791,2.9831,2.9839,2.9868,2.9884,2.9883,2.9914,2.9929,2.9959,2.997,2.9961,3.0014,3.0028,3.0071,3.0083,3.0094,3.0102,3.0089,3.0141,3.0146,3.015,3.0166,3.0173,3.0097,3.0097,3.0097,3.0097,0,2.9846,2.9874,2.9895,2.9926,2.9945,2.9974,2.9987,3.0005,3.0007,3.0017,3.0054,3.0071,3.0099,3.0109,3.0111,3.0153,3.0147,3.014,3.0122,3.0157,3.0173,3.0179,3.0099,3.0099,3.0098,3.0098,0,0,2.9887,2.9925,2.9932,2.9947,2.9975,2.9997,3.0027,3.0056,3.0071,3.0092,3.0118,3.0154,3.0148,3.0164,3.0167,3.0187,3.0224,3.0177,3.0178,3.0185,3.0272,3.0277,3.0284,3.0223,3.0224,3.0225,3.027,0,2.9927,2.9981,2.9991,3.0038,3.0064,3.0065,3.0092,3.0112,3.0123,3.0146,3.0158,3.0184,3.0174,3.0183,3.0203,3.0216,3.0242,3.0213,3.0245,3.0246,3.0239,3.0292,3.0297,3.0339,3.0276,3.0277,3.0278,0,2.998,3.0006,3.0056,3.0083,3.0094,3.0117,3.0145,3.0168,3.0192,3.0198,3.0217,3.0219,3.025,3.0233,3.0277,3.0257,3.0271,3.0279,3.0281,3.0283,3.0263,3.0295,3.0353,3.0359,3.0288,3.0287,3.0286,0,3.0005,3.0052,3.0088,3.0101,3.0133,3.015,3.0164,3.0186,3.0203,3.0228,3.0239,3.0266,3.0281,3.0302,3.0311,3.0298,3.0354,3.0338,3.036,3.036,3.037,3.0369,3.043,3.0381,3.0381,3.0381,3.0381,0,3.0048,3.0079,3.01,3.0122,3.0157,3.0169,3.0202,3.0216,3.0236,3.0261,3.0264,3.0287,3.0299,3.0323,3.0331,3.0366,3.0373,3.0378,3.038,3.0378,3.0377,3.0386,3.0383,3.0382,3.0382,3.0382,3.0381,0,3.0081,3.0097,3.0137,3.0165,3.0173,3.0197,3.0221,3.0243,3.0255,3.0287,3.0295,3.0313,3.0343,3.0355,3.0391,3.0396,3.0436,3.0435,3.0428,3.0429,3.045,3.0448,3.0518,3.0528,3.0473,3.0474,3.0474,0,3.0107,3.0131,3.0163,3.0181,3.0196,3.0224,3.0243,3.0255,3.0274,3.0304,3.0322,3.0353,3.0377,3.0425,3.044,3.0468,3.0468,3.0491,3.0472,3.047,3.0468,3.0466,3.0469,3.0494,3.0495,3.0495,3.0495,0,3.0152,3.0159,3.0186,3.0217,3.024,3.0264,3.0287,3.0301,3.0318,3.0339,3.037,3.039,3.0428,3.0458,3.0487,3.0501,3.0501,3.0502,3.0508,3.0506,3.0501,3.0504,3.0437,3.0499,3.0499,3.0499,3.0499,3.0498,3.0182,3.0204,3.0231,3.0261,3.0281,3.0304,3.0326,3.0342,3.0369,3.0402,3.0408,3.0442,3.0466,3.0506,3.0521,3.0547,3.0541,3.0551,3.0553,3.0555,3.0556,3.0498,3.0552,3.0552,3.0552,3.0552,3.0552,0,3.0227,3.0245,3.0273,3.0308,3.0332,3.0332,3.0359,3.0379,3.0409,3.0433,3.0458,3.0495,3.0524,3.0544,3.0574,3.0591,3.0592,3.0599,3.0597,3.06,3.056,3.0551,3.0597,3.0597,3.0597,3.0597,3.0597,3.0597,3.0253,3.0291,3.0302,3.035,3.0367,3.0401,3.0417,3.0438,3.0457,3.0498,3.0524,3.0537,3.0559,3.0591,3.0619,3.0624,3.0634,3.0641,3.0646,3.0607,3.0603,3.0598,3.059,3.0644,3.0644,3.0684,3.0684,3.0684]}]]